Portada
METAR-TAF:

METAR-TAF

Aeroports :

West Plains Municipal Airport

West Plains, Missouri, Estats Units d'Amèrica

latitud: 36-52-45N, longitud: 091-54-18W, altitud: 374 m

Observació

L'informe es va fer fa 9 minuts, a les 23:53 UTC
Vent 8 kt del Nord/Nord-Oest
Temperatura 24°C
Humitat 38%
Pressió 1020 hPa
Visibilitat: 16.1 km
Cel clar

METAR: KUNO 292353Z AUTO 33008KT 10SM CLR 24/09 A3013 RMK AO2 SLP192 T02390089 10261 20239 53005

Hora: 19:02 (00:02 UTC)


TAF: manca

Observacions i pronòstics meteorològics de més de 4000 aeroports (METAR i TAF).

Les estacions disponibles són els punts grocs i vermells al mapa.

Posi el ratolí al punt desitjat per veure el nom de l'estació.

Feu clic per veure les observacions i els pronòstics meteorològics.

Per canviar el mapa: feu clic els botons verds amb una creu de color negre per apropar; al botó verd amb un guió per allunyar la imatge; o en les fletxes verdes per a mapes adjacents.


METAR-TAF: